{"data":{"norad_id":67323,"epoch":"2026-09-19T11:04:45.762528Z","epoch_age_seconds":165086,"freshness":"FRESH","line1":"1 67323U 26002U   26262.46164077  .00007456  00000+0  28013-3 0  9992","line2":"2 67323  43.0055 310.9612 0001449 250.4919 109.5776 15.27588136 40779","mean_motion":15.27588136,"eccentricity":0.0001449,"inclination_deg":43.0055,"raan_deg":310.9612,"arg_perigee_deg":250.4919,"mean_anomaly_deg":109.5776,"bstar":0.00028013,"rev_number":4077,"period_min":94.266246644901,"perigee_km":482.03055170161,"apogee_km":484.01891637213,"semimajor_km":6861.1617340369,"source":"CELESTRAK","updated_at":"2026-09-20T09:00:43.507144Z"}}